Location: Barruelo
(41.2448°N, 3.8231°W)
Time: 00:15:39
(UTC+00:00)

IRIDIUM 106 - Visible Passes

Search period start: 14 March 2026 00:00
Search period end: 24 March 2026 00:00
Orbit: 776 x 779 km, 86.4° (Epoch: 13 March)

Date Brightness Start Highest point End Pass type
(mag) Time Alt. Az. Time Alt. Az. Time Alt. Az.
14 Mar 6.8 22:03:08 16° NNW 22:03:08 16° NNW 22:04:08 10° N visible
15 Mar 6.4 21:29:13 20° N 21:29:13 20° N 21:30:46 10° N visible
16 Mar 6.1 20:55:16 21° NNE 20:55:16 21° NNE 20:57:06 10° NNE visible
16 Mar 7.1 22:35:42 13° NW 22:35:42 13° NW 22:36:42 10° NNW visible
17 Mar 6.0 20:21:16 19° NE 20:21:16 19° NE 20:23:06 10° NNE visible
17 Mar 6.5 22:01:42 22° NW 22:01:42 22° NW 22:03:59 10° NNW visible
18 Mar 6.2 19:47:13 13° NE 19:47:13 13° NE 19:48:27 10° NE visible
18 Mar 5.6 21:27:39 36° NNW 21:27:39 36° NNW 21:30:49 10° N visible
19 Mar 4.8 20:53:32 48° NNE 20:53:32 48° NNE 20:57:19 10° N visible
19 Mar 7.1 22:33:57 13° WNW 22:33:57 13° WNW 22:35:45 10° NW visible
20 Mar 4.9 20:19:20 38° ENE 20:19:20 38° ENE 20:23:32 10° NNE visible
20 Mar 6.4 21:59:44 23° WNW 21:59:44 23° WNW 22:03:41 10° NNW visible
21 Mar 5.5 19:45:03 22° E 19:45:24 22° E 19:49:20 10° NNE visible
21 Mar 5.3 21:25:26 41° W 21:25:48 42° W 21:30:45 10° NNW visible
22 Mar 6.1 19:10:37 10° E 19:12:14 12° ENE 19:14:06 10° NE visible
22 Mar 4.3 20:51:02 54° SSW 20:52:11 78° W 20:57:26 10° N visible
23 Mar 4.3 20:16:25 32° SSE 20:18:42 57° E 20:23:49 10° N visible
23 Mar 6.9 21:56:48 11° WSW 21:59:50 16° WNW 22:03:06 10° NW visible
